Tracking 19832 objects as of 25-Aug-2019
HD Live streaming from Space Station
objects crossing your sky now

FENGYUN 1C DEB

Track FENGYUN 1C DEB now!
10-day predictions


NORAD ID: 30391
Int'l Code: 1999-025ADE
Perigee: 817.5 km
Apogee: 931.7 km
Inclination: 99.0 °
Period: 102.3 minutes
Semi major axis: 7245 km
RCS: 0.0444 m2 (small)
Launch date: May 10, 1999
Source: People's Republic of China (PRC)
Launch site: Taiyaun Space Center, China (TSC)

Note: This is SATELLITE DEBRIS
aabbcc
Your satellite tracking list
Your tracking list is empty




NASA's NSSDC Master Catalog

Two Line Element Set (TLE):
1 30391U 99025ADE 19237.09614057  .00000163  00000-0  12017-3 0  9999
2 30391  98.9883 278.6026 0078747 273.7980 139.2611 14.07639309644585
Source of the keplerian elements: AFSPC